Weather History for Palestine, TX

Change the Weather History Date:

Sunday, February 17, 2013

  Actual Average (KTYR) Record (KTYR)
Temperature  
Mean Temperature 54 °F 51 °F  
Max Temperature 69 °F 61 °F 82 °F (2000)
Min Temperature 40 °F 41 °F 11 °F (1900)
Degree Days  
Heating Degree Days 10 14  
Month to date heating degree days 270  
Since 1 July heating degree days 1748  
Cooling Degree Days 0 0  
Month to date cooling degree days 0  
Year to date cooling degree days 4  
Growing Degree Days 4 (Base 50)    
Moisture  
Dew Point 33 °F    
Average Humidity 47    
Maximum Humidity 71    
Minimum Humidity 24    
Precipitation  
Precipitation 0.00 in 0.14 in 2.08 in (1939)
Month to date precipitation 2.28  
Year to date precipitation 5.34  
Snow  
Snow 0.00 in - - ()
Month to date snowfall  
Since 1 July snowfall  
Snow Depth -    
Sea Level Pressure  
Sea Level Pressure 30.13 in    
Wind  
Wind Speed 7 mph (SSE)    
Max Wind Speed 17 mph    
Max Gust Speed 25 mph    
Visibility 10 miles    
Events      
T = Trace of Precipitation, MM = Missing Value Source: NWS Daily Summary

Daily Weather History Graph

Daily Weather History Graph

Search for Another Location

Airport:

Trip Planner

Search our weather history database for the weather conditions in past years. The results will help you decide how hot, cold, wet, or windy it might be!

Date:

Astronomy

Feb. 17, 2013 Rise Set
Actual Time 7:02 AM CST 6:11 PM CST
Civil Twilight 6:37 AM CST 6:36 PM CST
Nautical Twilight 6:09 AM CST 7:04 PM CST
Astronomical Twilight 5:40 AM CST 7:33 PM CST
Moon 11:24 AM CST (2/17) 12:40 AM CST (2/17)
Length of Visible Light 11h 58m
Length of Day
11h 08m
Waxing Crescent, 49% of the Moon is Illuminated
Feb 17
Waxing Crescent
Feb 17
First Quarter
Feb 25
Full
Mar 4
Last Quarter
Mar 11
New

Hourly Weather History & Observations

Time (CST) Temp. Windchill Dew Point Humidity Pressure Visibility Wind Dir Wind Speed Gust Speed Precip Events Conditions
12:15 AM 42.3 °F 39.4 °F 24.8 °F 50% 30.24 in 10.0 mi SE 4.6 mph - N/A   Clear
12:35 AM 42.4 °F 40.7 °F 24.8 °F 50% 30.24 in 10.0 mi SE 3.5 mph - N/A   Clear
12:55 AM 42.3 °F 39.4 °F 24.8 °F 50% 30.23 in 10.0 mi SE 4.6 mph - N/A   Clear
1:15 AM 41.9 °F 38.2 °F 25.7 °F 53% 30.23 in 10.0 mi SE 5.8 mph - N/A   Clear
1:35 AM 42.1 °F 39.2 °F 26.8 °F 55% 30.23 in 10.0 mi SE 4.6 mph - N/A   Clear
1:55 AM 42.3 °F 38.6 °F 27.5 °F 56% 30.23 in 10.0 mi SE 5.8 mph - N/A   Clear
2:15 AM 41.9 °F 39.0 °F 27.9 °F 58% 30.22 in 10.0 mi SE 4.6 mph - N/A   Clear
2:35 AM 41.5 °F 37.8 °F 28.4 °F 60% 30.21 in 10.0 mi SE 5.8 mph - N/A   Clear
2:55 AM 41.9 °F 38.2 °F 28.4 °F 59% 30.21 in 10.0 mi SE 5.8 mph - N/A   Clear
3:15 AM 41.9 °F 39.0 °F 28.8 °F 60% 30.20 in 10.0 mi SE 4.6 mph - N/A   Clear
3:35 AM 41.9 °F 38.2 °F 28.9 °F 60% 30.20 in 10.0 mi SSE 5.8 mph - N/A   Clear
3:55 AM 42.3 °F 38.6 °F 29.3 °F 60% 30.19 in 10.0 mi SSE 5.8 mph - N/A   Clear
4:15 AM 41.9 °F 38.2 °F 29.3 °F 61% 30.19 in 10.0 mi SSE 5.8 mph - N/A   Clear
4:35 AM 41.9 °F 38.2 °F 29.7 °F 62% 30.19 in 10.0 mi SSE 5.8 mph - N/A   Clear
4:55 AM 42.1 °F 38.4 °F 30.0 °F 62% 30.19 in 10.0 mi SSE 5.8 mph - N/A   Clear
5:15 AM 42.1 °F 37.7 °F 30.2 °F 63% 30.19 in 10.0 mi SSE 6.9 mph - N/A   Clear
5:35 AM 42.3 °F 39.4 °F 30.7 °F 64% 30.19 in 10.0 mi SSE 4.6 mph - N/A   Clear
5:55 AM 42.3 °F 39.4 °F 30.9 °F 64% 30.20 in 10.0 mi SSE 4.6 mph - N/A   Clear
6:15 AM 41.9 °F 39.0 °F 31.1 °F 66% 30.20 in 10.0 mi SSE 4.6 mph - N/A   Clear
6:35 AM 41.4 °F 38.4 °F 31.3 °F 67% 30.20 in 10.0 mi SSE 4.6 mph - N/A   Clear
6:55 AM 40.6 °F 37.5 °F 31.5 °F 70% 30.20 in 10.0 mi SSE 4.6 mph - N/A   Clear
7:15 AM 40.5 °F 37.3 °F 31.6 °F 71% 30.20 in 10.0 mi SSE 4.6 mph - N/A   Clear
7:35 AM 40.8 °F 37.8 °F 32.0 °F 71% 30.20 in 10.0 mi SE 4.6 mph - N/A   Clear
8:15 AM 44.1 °F 40.8 °F 33.3 °F 66% 30.21 in 10.0 mi SSE 5.8 mph - N/A   Clear
8:35 AM 46.2 °F 42.2 °F 33.8 °F 62% 30.21 in 10.0 mi South 8.1 mph - N/A   Clear
8:55 AM 48.9 °F - 33.6 °F 56% 30.21 in 10.0 mi South 11.5 mph 16.1 mph N/A   Clear
9:15 AM 50.4 °F - 33.8 °F 53% 30.21 in 10.0 mi South 9.2 mph 16.1 mph N/A   Clear
9:35 AM 51.8 °F - 34.2 °F 51% 30.21 in 10.0 mi SSW 10.4 mph - N/A   Clear
9:55 AM 53.4 °F - 34.5 °F 49% 30.21 in 10.0 mi SSW 9.2 mph - N/A   Clear
10:15 AM 54.7 °F - 35.2 °F 48% 30.21 in 10.0 mi South 8.1 mph - N/A   Clear
10:35 AM 56.8 °F - 35.6 °F 45% 30.20 in 10.0 mi South 8.1 mph - N/A   Clear
10:55 AM 59.0 °F - 34.9 °F 40% 30.20 in 10.0 mi South 9.2 mph - N/A   Clear
11:15 AM 60.8 °F - 35.4 °F 39% 30.20 in 10.0 mi South 9.2 mph - N/A   Clear
11:35 AM 62.6 °F - 34.5 °F 35% 30.19 in 10.0 mi South 9.2 mph - N/A   Clear
11:55 AM 64.2 °F - 35.4 °F 34% 30.18 in 10.0 mi SSE 10.4 mph 16.1 mph N/A   Clear
12:15 PM 65.1 °F - 34.5 °F 32% 30.17 in 10.0 mi South 12.7 mph 17.3 mph N/A   Clear
12:55 PM 66.4 °F - 33.4 °F 29% 30.14 in 10.0 mi South 15.0 mph 21.9 mph N/A   Clear
1:15 PM 66.7 °F - 32.9 °F 28% 30.13 in 10.0 mi South 16.1 mph 23.0 mph N/A   Clear
1:35 PM 67.3 °F - 33.3 °F 28% 30.11 in 10.0 mi South 15.0 mph 21.9 mph N/A   Clear
1:55 PM 67.6 °F - 33.6 °F 28% 30.10 in 10.0 mi SSE 11.5 mph 23.0 mph N/A   Clear
2:15 PM 68.2 °F - 33.3 °F 27% 30.09 in 10.0 mi South 12.7 mph 21.9 mph N/A   Clear
2:35 PM 68.7 °F - 32.9 °F 27% 30.08 in 10.0 mi SSE 11.5 mph 17.3 mph N/A   Clear
2:55 PM 68.9 °F - 31.6 °F 25% 30.07 in 10.0 mi South 13.8 mph 24.2 mph N/A   Clear
3:15 PM 68.7 °F - 31.8 °F 25% 30.07 in 10.0 mi South 17.3 mph 24.2 mph N/A   Clear
3:35 PM 69.1 °F - 32.0 °F 25% 30.06 in 10.0 mi SSE 15.0 mph 24.2 mph N/A   Clear
3:55 PM 69.3 °F - 32.0 °F 25% 30.05 in 10.0 mi South 13.8 mph 24.2 mph N/A   Clear
4:15 PM 68.9 °F - 30.6 °F 24% 30.05 in 10.0 mi South 16.1 mph 25.3 mph N/A   Clear
4:35 PM 68.5 °F - 32.0 °F 26% 30.04 in 10.0 mi South 13.8 mph 18.4 mph N/A   Clear
4:55 PM 68.2 °F - 32.0 °F 26% 30.03 in 10.0 mi South 12.7 mph 21.9 mph N/A   Clear
5:15 PM 68.0 °F - 31.1 °F 25% 30.03 in 10.0 mi South 13.8 mph 21.9 mph N/A   Clear
5:35 PM 66.6 °F - 32.2 °F 28% 30.03 in 10.0 mi SSE 6.9 mph 17.3 mph N/A   Clear
5:55 PM 65.5 °F - 32.0 °F 29% 30.02 in 10.0 mi South 8.1 mph - N/A   Clear
6:15 PM 64.6 °F - 32.2 °F 30% 30.02 in 10.0 mi SSE 8.1 mph 16.1 mph N/A   Clear
6:35 PM 63.5 °F - 32.9 °F 32% 30.02 in 10.0 mi SSE 5.8 mph - N/A   Clear
6:55 PM 62.2 °F - 33.4 °F 34% 30.02 in 10.0 mi SSE 6.9 mph - N/A   Clear
7:15 PM 61.7 °F - 34.2 °F 36% 30.03 in 10.0 mi SSE 5.8 mph - N/A   Clear
7:35 PM 61.0 °F - 34.9 °F 38% 30.03 in 10.0 mi SSE 6.9 mph - N/A   Clear
7:55 PM 60.1 °F - 35.1 °F 39% 30.03 in 10.0 mi SSE 6.9 mph - N/A   Clear
8:15 PM 60.4 °F - 36.1 °F 40% 30.04 in 10.0 mi South 9.2 mph - N/A   Clear
8:35 PM 60.3 °F - 37.2 °F 42% 30.04 in 10.0 mi SSE 9.2 mph 16.1 mph N/A   Clear
8:55 PM 59.9 °F - 37.8 °F 44% 30.05 in 10.0 mi SSE 6.9 mph - N/A   Mostly Cloudy
9:15 PM 59.9 °F - 39.4 °F 47% 30.05 in 10.0 mi SSE 10.4 mph - N/A   Overcast
9:35 PM 59.4 °F - 40.1 °F 49% 30.05 in 10.0 mi SSE 8.1 mph 16.1 mph N/A   Overcast
9:55 PM 58.3 °F - 40.3 °F 51% 30.06 in 10.0 mi SSE 5.8 mph - N/A   Scattered Clouds
10:15 PM 57.4 °F - 40.8 °F 54% 30.06 in 10.0 mi SSE 11.5 mph 17.3 mph N/A   Scattered Clouds
10:35 PM 56.8 °F - 41.4 °F 56% 30.05 in 10.0 mi SSE 9.2 mph - N/A   Clear
10:55 PM 56.5 °F - 42.3 °F 59% 30.05 in 10.0 mi SSE 11.5 mph - N/A   Scattered Clouds
11:15 PM 56.3 °F - 43.0 °F 61% 30.03 in 10.0 mi SSE 10.4 mph - N/A   Mostly Cloudy
11:35 PM 55.8 °F - 43.5 °F 63% 30.03 in 10.0 mi SSE 9.2 mph - N/A   Scattered Clouds
11:55 PM 55.4 °F - 43.7 °F 65% 30.02 in 10.0 mi SSE 11.5 mph 17.3 mph N/A   Scattered Clouds